Location: Quail Creek Observatory
(32.9410°N, 97.1240°W)
Time: 16:47:16
(UTC-06:00)

Daily predictions for brighter satellites

Satellite Brightness Start Highest point End
(mag) Time Altitude Azimuth Time Altitude Azimuth Time Altitude Azimuth
Okean 1 3.4 18:40:24 10° N 18:44:28 87° W 18:48:32 10° S
Cosmos 1602 3.7 18:44:57 10° S 18:48:48 77° E 18:52:42 10° N
Cosmos 1340 2.6 18:48:11 10° N 18:51:58 69° E 18:55:43 10° SSE
COSMO-SKYMED 1 3.5 18:48:24 10° N 18:52:38 53° WNW 18:56:50 10° SSW
Cosmos 1741 Rocket 4.0 18:50:28 10° S 18:55:39 72° ESE 19:00:52 10° NNE
Resurs 01 Rocket 2.9 18:55:18 10° ESE 18:58:27 20° ENE 19:01:36 10° NNE
NOAA 12 4.1 18:56:56 10° SSE 19:02:11 66° ENE 19:07:29 10° N
Meteor 1-11 Rocket 3.8 18:57:44 10° S 19:03:32 88° E 19:09:28 10° N
Cosmos 1140 Rocket 4.4 18:59:25 10° SSW 19:04:24 52° WNW 19:09:26 10° N
ATLAS 2A CENTAUR R/B 2.7 19:02:23 10° SW 19:04:24 24° S 19:08:54 10° ESE
Cosmos 614 Rocket 4.3 19:00:07 10° SSW 19:05:10 70° WNW 19:10:14 10° NNE
SL-16 R/B 4.2 19:01:01 10° NW 19:06:00 33° WSW 19:10:58 10° SSW
FENGYUN 3A 4.1 19:04:49 10° SE 19:09:48 39° ENE 19:14:48 10° N
Cosmos 2333 Rocket 3.6 19:06:41 10° NNE 19:10:32 18° ENE 19:12:59 14° E
GPS 2-04 Rocket1 3.1 19:06:32 10° W 19:10:44 65° N 19:14:12 15° ENE
Cosmos 1633 4.0 19:07:26 10° SSW 19:10:57 43° W 19:14:29 10° N
GEOS 3 Rocket 3.9 19:10:45 10° NE 19:15:49 48° ESE 19:20:54 10° SSW
Okean 1 Rocket 3.3 19:12:12 10° S 19:16:39 74° W 19:21:09 10° N
Genesis I 3.2 19:13:26 10° NNW 19:17:18 58° ENE 19:21:10 10° SE
Cosmos 1570 Rocket 4.0 19:13:57 10° N 19:19:07 60° ENE 19:24:17 10° SSE
OTV 4 0.3 19:18:04 10° WSW 19:21:02 84° NNW 19:22:38 24° ENE
Cosmos 1238 Rocket 3.0 19:18:54 10° NNW 19:21:48 52° W 19:24:54 10° S
Cosmos 2181 Rocket 4.2 19:17:25 10° N 19:23:43 78° W 19:30:05 10° S
METEOR-M 4.3 19:19:03 10° S 19:24:22 76° WSW 19:29:43 10° NNW
Skynet4D Del rocket 4.4 19:21:32 10° WSW 19:26:32 37° S 19:29:46 19° ESE
Cosmos 1025 Rocket 3.2 19:23:14 10° N 19:27:31 51° E 19:31:47 10° SSE
Cosmos 2074 Rocket 3.9 19:21:26 10° S 19:27:38 74° E 19:33:53 10° N
Spot 2 Rocket 3.8 19:23:38 10° SE 19:28:23 43° ENE 19:33:10 10° N
USA 229 DEB 4.1 19:23:00 10° NNW 19:29:50 46° NE 19:35:24 16° ESE
USA 229 4.1 19:23:06 10° NNW 19:29:56 45° NE 19:35:26 16° ESE
SL-08 ROCKET BODY 4.4 19:24:46 10° S 19:30:56 88° E 19:37:09 10° N
Meteor 1-5 Rocket 4.3 19:25:49 10° S 19:31:47 78° E 19:37:42 10° N
Cosmos 2082 4.3 19:27:57 10° SSE 19:33:01 34° ESE 19:37:59 10° NE
Cosmos 2184 Rocket 3.9 19:27:46 10° S 19:34:05 80° E 19:40:22 10° N
FengYun 1-2 T 4.1 19:30:04 10° SSE 19:35:29 68° ENE 19:40:58 10° N
Hubble Space Telescope 1.5 19:33:27 10° WSW 19:37:21 41° S 19:38:56 28° SE
Meteor 2-13 Rocket 4.4 19:32:41 10° S 19:38:35 56° E 19:44:31 10° NNE
DELTA 2 R/B (1) 4.1 19:36:33 10° WNW 19:42:02 55° SSW 19:46:05 18° SE
SJ-6B 3.6 19:38:30 10° S 19:42:26 54° W 19:46:17 10° NNW
Cosmos 1544 Rocket 3.6 19:39:56 10° SSE 19:44:06 49° E 19:48:16 10° NNE
HJ-1C 3.5 19:42:03 10° S 19:45:24 77° W 19:48:46 10° NNW
Cosmos 405 Rocket 3.1 19:44:47 10° N 19:48:31 43° ENE 19:48:31 43° ENE
H-2A R/B 2.5 19:46:09 19° SSE 19:48:43 66° ENE 19:52:26 10° N
ALOS 2.4 19:44:09 10° S 19:48:48 78° WSW 19:53:29 10° NNW
CZ-2D R/B 3.4 19:49:35 47° ENE 19:49:35 47° ENE 19:53:14 10° N
Cosmos 2208 Rocket 4.3 19:44:50 10° NNW 19:50:15 74° WSW 19:55:35 10° S
Cosmos 2297 Rocket 2.4 19:48:42 10° S 19:54:02 45° ESE 19:56:25 29° NE
Cosmos 2237 Rocket 3.0 19:51:39 10° N 19:56:29 31° ENE 19:56:29 31° ENE
Nadezhda 3 Rocket 4.2 19:50:57 10° N 19:56:49 45° E 19:59:44 27° SE
NOSS 0 Rocket 4.1 19:51:41 10° N 19:57:34 46° ENE 19:59:13 38° ESE
Cosmos 2333 4.2 19:53:22 10° NNW 19:59:08 86° WSW 20:04:54 10° SSE
Meteor 1-12 Rocket 4.4 19:54:15 10° S 20:00:05 55° E 20:05:52 10° NNE
COSMOS 2428 2.9 19:55:21 10° NNW 20:01:01 71° WSW 20:06:40 10° S
Cosmos 2341 Rocket 4.1 19:56:24 10° SSE 20:02:28 50° E 20:08:35 10° NNE
Cosmos 2154 Rocket 3.9 19:57:16 10° S 20:03:33 71° E 20:09:53 10° N
KM-V1 4.4 19:57:52 10° W 20:04:42 71° S 20:05:10 64° SE
H-2A R/B 3.8 20:01:17 10° SSW 20:05:19 31° SE 20:06:25 30° ESE
Okean 2 3.5 20:02:56 10° N 20:07:06 76° W 20:10:33 15° S
Cosmos 2360 Rocket 4.5 20:04:19 10° NW 20:08:46 24° WSW 20:13:14 10° SSW
Cosmos 2219 Rocket 2.0 20:03:20 10° NNW 20:08:56 72° ENE 20:10:47 43° SE
Helios 1A 3.5 20:10:07 44° NNE 20:10:07 44° NNE 20:13:08 10° N
OAO 3 Rocket 3.1 20:05:52 10° WSW 20:10:47 70° SSE 20:11:09 66° SE
Cosmos 2285 Rocket 4.0 20:04:23 10° NNW 20:10:51 85° WSW 20:17:13 10° SSE
Cosmos 1486 Rocket 3.9 20:07:57 10° S 20:13:16 79° ESE 20:16:55 21° NNE
Helios 1B rocket 2.5 20:09:31 10° N 20:13:40 79° WNW 20:17:47 10° SSW
Cosmos 2227 Rocket 2.1 20:08:48 10° SSW 20:14:27 86° WNW 20:20:09 10° NNE
Atlas Centaur 2 3.0 20:10:48 10° SW 20:17:44 42° SSE 20:18:27 40° SSE
Cosmos 1455 Rocket 3.2 20:17:11 10° SSW 20:21:33 71° W 20:25:55 10° N
BREEZE-M DEB (TANK) 3.1 20:21:00 10° NW 20:24:26 78° NE 20:25:25 61° ESE
ATLAS CENTAUR R/B 3.9 20:28:08 10° WSW 20:31:10 19° WNW 20:31:14 19° WNW
SL-16 R/B 4.1 20:27:49 10° N 20:29:18 16° NNE 20:29:18 16° NNE
Cosmos 962 Rocket 4.4 20:27:33 10° S 20:33:46 87° W 20:39:57 10° N
Resurs 01 Rocket 3.5 20:30:51 10° SSW 20:34:41 29° W 20:38:32 10° NW
BREEZE-M DEB (TANK) 4.4 20:30:23 10° NW 20:34:47 66° NE 20:36:29 54° E
SEDSat Delta rocket 4.5 20:39:16 10° WSW 20:44:30 46° SSW 20:44:30 46° SSW
Cosmos 2333 Rocket 2.7 20:49:31 10° NNW 20:55:05 56° WSW 20:55:05 56° WSW
Cosmos 1980 4.3 20:50:24 10° NNW 20:54:45 52° NW 20:54:45 52° NW
ATLAS 3B CENTAUR R/B 4.3 20:40:50 10° WSW 21:07:50 59° S 21:09:40 56° SE
Cosmos 2297 Rocket 4.4 21:34:02 10° WSW 21:38:14 21° WNW 21:38:27 21° NW
Cosmos 2237 Rocket 4.3 21:35:46 10° NW 21:38:23 22° WNW 21:38:23 22° WNW
CZ-3 Stage 3 4.2 21:25:29 10° WSW 21:45:35 50° SW 21:45:35 50° SW
